Location: Bergheim
(50.9593°N, 6.6400°E)
Time: 10:16:09
(UTC+02:00)

ISS - Pass Details

Date: 19 May 2021
Orbit: 417 x 422 km, 51.6° (Epoch: 13 June)

Event Time Altitude Azimuth Distance (km) Brightness Sun altitude
Rises 22:04:33 0° 242° (WSW) 2,357 0.3 -6.0°
Reaches altitude 10° 22:06:39 10° 239° (WSW) 1,497 -0.7 -6.3°
Maximum altitude 22:09:58 60° 159° (SSE) 486 -3.7 -6.6°
Drops below altitude 10° 22:13:18 10° 79° (E) 1,505 -1.3 -7.0°
Sets 22:15:25 0° 76° (ENE) 2,372 -0.2 -7.2°
